| time (UTC) | temp C | wind direction | speed KPH | gust KPH | rain 1hr cm | rain 24hr cm | rain mn cm | humidity % | barometer mb |
| 20260508111542 | 16 | 17 | 4.8 | 16.1 | 0.00 | 0.00 | 0.00 | 87 | 1013.0 |
| 20260508111505 | 17 | 17 | 4.8 | 9.7 | 0.00 | 0.00 | 0.00 | 88 | 1016.2 |
| 20260508110053 | 17 | 360 | 4.8 | 19.3 | 0.00 | 0.00 | 0.00 | 88 | 1012.4 |
| 20260508110005 | 17 | 5 | 4.8 | 19.3 | 0.00 | 0.00 | 0.00 | 88 | 1015.5 |
| 20260508104544 | 17 | 42 | 1.6 | 8.0 | 0.00 | 0.00 | 0.00 | 89 | 1012.8 |
| 20260508104505 | 17 | 43 | 1.6 | 8.0 | 0.00 | 0.00 | 0.00 | 90 | 1016.0 |
| 20260508103054 | 17 | 0 | 0.0 | 4.8 | 0.00 | 0.00 | 0.00 | 89 | 1013.8 |
| 20260508103013 | 17 | 306 | 0.0 | 4.8 | 0.00 | 0.00 | 0.00 | 90 | 1016.9 |
| 20260508101542 | 17 | 0 | 0.0 | 3.2 | 0.00 | 0.00 | 0.00 | 89 | 1013.1 |
| 20260508101503 | 17 | 306 | 0.0 | 1.6 | 0.00 | 0.00 | 0.00 | 89 | 1016.4 |
| 20260508100042 | 17 | 306 | 0.0 | 4.8 | 0.00 | 0.00 | 0.00 | 88 | 1012.8 |
| 20260508100002 | 17 | 306 | 0.0 | 4.8 | 0.00 | 0.00 | 0.00 | 88 | 1015.9 |
| 20260508094603 | 17 | 0 | 0.0 | 4.8 | 0.00 | 0.00 | 0.00 | 87 | 1013.1 |
| 20260508094501 | 17 | 292 | 0.0 | 3.2 | 0.00 | 0.00 | 0.00 | 87 | 1016.2 |
| 20260508093100 | 17 | 109 | 0.0 | 3.2 | 0.00 | 0.00 | 0.00 | 85 | 1015.7 |
| 20260508093041 | 17 | 109 | 0.0 | 12.9 | 0.00 | 0.00 | 0.00 | 84 | 1012.5 |
| 20260508091604 | 17 | 142 | 6.4 | 11.3 | 0.00 | 0.00 | 0.00 | 83 | 1015.6 |
| 20260508091543 | 17 | 107 | 4.8 | 11.3 | 0.00 | 0.00 | 0.00 | 82 | 1012.4 |
| 20260508090055 | 17 | 350 | 3.2 | 8.0 | 0.00 | 0.00 | 0.00 | 82 | 1016.3 |
| 20260508090045 | 17 | 350 | 1.6 | 8.0 | 0.00 | 0.00 | 0.00 | 81 | 1013.1 |
| 20260508084554 | 17 | 5 | 4.8 | 9.7 | 0.00 | 0.00 | 0.00 | 82 | 1016.3 |
| 20260508084547 | 17 | 5 | 4.8 | 11.3 | 0.00 | 0.00 | 0.00 | 82 | 1013.1 |
| 20260508083132 | 17 | 53 | 3.2 | 6.4 | 0.00 | 0.00 | 0.00 | 82 | 1016.4 |
| 20260508083117 | 17 | 53 | 1.6 | 6.4 | 0.00 | 0.00 | 0.00 | 82 | 1013.2 |
| 20260508081556 | 17 | 80 | 3.2 | 8.0 | 0.00 | 0.00 | 0.00 | 81 | 1016.3 |
| 20260508081554 | 17 | 80 | 4.8 | 8.0 | 0.00 | 0.00 | 0.00 | 81 | 1013.2 |
| 20260508080056 | 17 | 78 | 4.8 | 11.3 | 0.00 | 0.00 | 0.00 | 80 | 1016.1 |
| 20260508080052 | 17 | 78 | 3.2 | 11.3 | 0.00 | 0.00 | 0.00 | 79 | 1012.9 |
| 20260508074549 | 18 | 130 | 1.6 | 4.8 | 0.00 | 0.00 | 0.00 | 76 | 1016.7 |
| 20260508074539 | 18 | 130 | 1.6 | 4.8 | 0.00 | 0.00 | 0.00 | 76 | 1013.6 |
| 20260508073055 | 18 | 48 | 0.0 | 4.8 | 0.00 | 0.00 | 0.00 | 75 | 1017.0 |
| 20260508073052 | 18 | 48 | 0.0 | 6.4 | 0.00 | 0.00 | 0.00 | 74 | 1014.0 |
| 20260508071549 | 18 | 45 | 3.2 | 8.0 | 0.00 | 0.00 | 0.00 | 74 | 1017.2 |
| 20260508071546 | 18 | 47 | 3.2 | 8.0 | 0.00 | 0.00 | 0.00 | 74 | 1014.1 |
| 20260508070046 | 18 | 37 | 1.6 | 4.8 | 0.00 | 0.00 | 0.00 | 74 | 1017.0 |
| 20260508064603 | 18 | 36 | 3.2 | 9.7 | 0.00 | 0.00 | 0.00 | 73 | 1017.2 |
| 20260508063046 | 18 | 30 | 1.6 | 6.4 | 0.00 | 0.00 | 0.00 | 73 | 1017.4 |
| 20260508063040 | 18 | 30 | 1.6 | 6.4 | 0.00 | 0.00 | 0.00 | 72 | 1014.2 |
| 20260508061545 | 18 | 360 | 3.2 | 14.5 | 0.00 | 0.00 | 0.00 | 73 | 1017.1 |
| 20260508060045 | 18 | 46 | 6.4 | 16.1 | 0.00 | 0.00 | 0.00 | 73 | 1016.7 |
| 20260508054543 | 18 | 60 | 8.0 | 14.5 | 0.00 | 0.00 | 0.00 | 72 | 1013.5 |
| 20260508054541 | 18 | 53 | 8.0 | 14.5 | 0.00 | 0.00 | 0.00 | 73 | 1016.5 |
| 20260508053042 | 18 | 88 | 3.2 | 9.7 | 0.00 | 0.00 | 0.00 | 73 | 1014.2 |
| 20260508053037 | 18 | 88 | 3.2 | 9.7 | 0.00 | 0.00 | 0.00 | 73 | 1017.4 |
| 20260508051542 | 18 | 0 | 0.0 | 3.2 | 0.00 | 0.00 | 0.00 | 72 | 1015.2 |
| 20260508051535 | 18 | 338 | 0.0 | 3.2 | 0.00 | 0.00 | 0.00 | 73 | 1018.4 |
| 20260508050049 | 18 | 337 | 0.0 | 9.7 | 0.00 | 0.00 | 0.00 | 73 | 1014.7 |
| 20260508050041 | 18 | 337 | 0.0 | 4.8 | 0.00 | 0.00 | 0.00 | 73 | 1017.7 |
| 20260508044543 | 18 | 314 | 1.6 | 12.9 | 0.00 | 0.00 | 0.00 | 72 | 1015.1 |
| 20260508044532 | 18 | 314 | 1.6 | 6.4 | 0.00 | 0.00 | 0.00 | 73 | 1018.2 |
| 20260508043042 | 18 | 319 | 3.2 | 14.5 | 0.00 | 0.00 | 0.00 | 72 | 1014.3 |
| 20260508043035 | 18 | 319 | 3.2 | 12.9 | 0.00 | 0.00 | 0.00 | 72 | 1017.5 |
| 20260508041546 | 18 | 22 | 3.2 | 14.5 | 0.00 | 0.00 | 0.00 | 70 | 1013.3 |
| 20260508041529 | 18 | 22 | 3.2 | 14.5 | 0.00 | 0.00 | 0.00 | 71 | 1016.3 |
| 20260508040048 | 18 | 39 | 9.7 | 17.7 | 0.00 | 0.00 | 0.00 | 70 | 1012.6 |
| 20260508040033 | 18 | 39 | 8.0 | 17.7 | 0.00 | 0.00 | 0.00 | 70 | 1015.7 |
| 20260508034542 | 18 | 63 | 4.8 | 14.5 | 0.00 | 0.00 | 0.00 | 70 | 1013.6 |
| 20260508034529 | 18 | 63 | 3.2 | 14.5 | 0.00 | 0.00 | 0.00 | 70 | 1016.8 |
| 20260508033042 | 19 | 51 | 4.8 | 12.9 | 0.00 | 0.00 | 0.00 | 69 | 1013.6 |
| 20260508033028 | 18 | 53 | 6.4 | 11.3 | 0.00 | 0.00 | 0.00 | 69 | 1016.8 |
| 20260508031548 | 19 | 43 | 3.2 | 8.0 | 0.00 | 0.00 | 0.00 | 68 | 1014.2 |
| 20260508031528 | 19 | 42 | 4.8 | 8.0 | 0.00 | 0.00 | 0.00 | 69 | 1017.4 |
| 20260508030059 | 19 | 49 | 4.8 | 11.3 | 0.00 | 0.00 | 0.00 | 69 | 1014.7 |
| 20260508030027 | 19 | 27 | 4.8 | 9.7 | 0.00 | 0.00 | 0.00 | 69 | 1017.8 |
| 20260508024555 | 19 | 19 | 3.2 | 11.3 | 0.00 | 0.00 | 0.00 | 69 | 1014.6 |
| 20260508024529 | 19 | 19 | 1.6 | 9.7 | 0.00 | 0.00 | 0.00 | 69 | 1017.6 |
| 20260508023050 | 19 | 26 | 1.6 | 6.4 | 0.00 | 0.00 | 0.00 | 69 | 1014.3 |
| 20260508023033 | 19 | 27 | 1.6 | 6.4 | 0.00 | 0.00 | 0.00 | 70 | 1017.3 |
| 20260508021548 | 19 | 28 | 3.2 | 8.0 | 0.00 | 0.00 | 0.00 | 68 | 1014.2 |
| 20260508021524 | 19 | 29 | 3.2 | 8.0 | 0.00 | 0.00 | 0.00 | 69 | 1017.2 |
| 20260508020048 | 19 | 24 | 3.2 | 8.0 | 0.00 | 0.00 | 0.00 | 68 | 1013.8 |
| 20260508020025 | 19 | 24 | 3.2 | 8.0 | 0.00 | 0.00 | 0.00 | 68 | 1017.0 |
| 20260508014547 | 19 | 5 | 3.2 | 14.5 | 0.00 | 0.00 | 0.00 | 67 | 1013.7 |
| 20260508014531 | 19 | 5 | 4.8 | 9.7 | 0.00 | 0.00 | 0.00 | 68 | 1016.8 |
| 20260508013045 | 19 | 36 | 6.4 | 16.1 | 0.00 | 0.00 | 0.00 | 67 | 1013.3 |
| 20260508013024 | 19 | 35 | 6.4 | 16.1 | 0.00 | 0.00 | 0.00 | 68 | 1016.5 |
| 20260508011553 | 20 | 339 | 1.6 | 8.0 | 0.00 | 0.00 | 0.00 | 69 | 1013.3 |
| 20260508011530 | 20 | 339 | 1.6 | 8.0 | 0.00 | 0.00 | 0.00 | 70 | 1016.5 |
| 20260508010057 | 20 | 90 | 6.4 | 22.5 | 0.00 | 0.00 | 0.00 | 68 | 1012.2 |
| 20260508010030 | 20 | 65 | 4.8 | 17.7 | 0.00 | 0.00 | 0.00 | 69 | 1015.4 |
| 20260508004556 | 20 | 87 | 9.7 | 24.1 | 0.00 | 0.00 | 0.00 | 67 | 1011.6 |
| 20260508004521 | 20 | 82 | 9.7 | 24.1 | 0.00 | 0.00 | 0.00 | 68 | 1014.5 |
| 20260508003045 | 20 | 113 | 8.0 | 24.1 | 0.00 | 0.00 | 0.00 | 67 | 1011.6 |
| 20260508003025 | 20 | 90 | 8.0 | 24.1 | 0.00 | 0.00 | 0.00 | 68 | 1014.5 |
| 20260508001544 | 20 | 67 | 4.8 | 17.7 | 0.00 | 0.00 | 0.00 | 67 | 1011.9 |
| 20260508001518 | 20 | 81 | 4.8 | 17.7 | 0.00 | 0.00 | 0.00 | 68 | 1015.0 |
| 20260508000045 | 20 | 69 | 9.7 | 20.9 | 0.00 | 0.00 | 0.00 | 66 | 1012.3 |
| 20260508000017 | 20 | 99 | 9.7 | 20.9 | 0.00 | 0.00 | 0.00 | 67 | 1015.5 |
| 20260507234546 | 20 | 69 | 8.0 | 14.5 | 0.00 | 0.00 | 0.00 | 65 | 1013.4 |
| 20260507234520 | 20 | 48 | 8.0 | 14.5 | 0.00 | 0.00 | 0.00 | 66 | 1016.3 |
| 20260507233046 | 20 | 19 | 4.8 | 20.9 | 0.00 | 0.00 | 0.00 | 65 | 1014.0 |
| 20260507233016 | 20 | 51 | 4.8 | 20.9 | 0.00 | 0.00 | 0.00 | 66 | 1017.0 |
| 20260507231550 | 21 | 113 | 4.8 | 16.1 | 0.00 | 0.00 | 0.00 | 66 | 1013.9 |
| 20260507231541 | 21 | 94 | 4.8 | 16.1 | 0.00 | 0.00 | 0.00 | 66 | 1016.9 |
| 20260507230043 | 21 | 352 | 8.0 | 17.7 | 0.00 | 0.00 | 0.00 | 66 | 1014.1 |
| 20260507230016 | 21 | 10 | 9.7 | 17.7 | 0.00 | 0.00 | 0.00 | 66 | 1017.2 |
| 20260507224556 | 21 | 40 | 4.8 | 17.7 | 0.00 | 0.00 | 0.00 | 66 | 1014.2 |
| 20260507224517 | 21 | 60 | 6.4 | 16.1 | 0.00 | 0.00 | 0.00 | 66 | 1017.2 |
| 20260507223041 | 21 | 60 | 9.7 | 20.9 | 0.00 | 0.00 | 0.00 | 65 | 1014.5 |
| 20260507223014 | 21 | 44 | 9.7 | 20.9 | 0.00 | 0.00 | 0.00 | 65 | 1017.4 |
| 20260507221545 | 21 | 19 | 8.0 | 19.3 | 0.00 | 0.00 | 0.00 | 65 | 1014.9 |
| 20260507221515 | 21 | 51 | 8.0 | 19.3 | 0.00 | 0.00 | 0.00 | 66 | 1017.9 |
| 20260507220046 | 21 | 47 | 9.7 | 24.1 | 0.00 | 0.00 | 0.00 | 67 | 1014.6 |
| 20260507220012 | 21 | 34 | 9.7 | 24.1 | 0.00 | 0.00 | 0.00 | 67 | 1017.4 |
| 20260507214543 | 20 | 49 | 8.0 | 17.7 | 0.00 | 0.00 | 0.00 | 69 | 1014.6 |
| 20260507214511 | 20 | 27 | 8.0 | 17.7 | 0.00 | 0.00 | 0.00 | 70 | 1017.5 |
| 20260507213057 | 20 | 42 | 4.8 | 19.3 | 0.00 | 0.00 | 0.00 | 70 | 1014.8 |
| 20260507213008 | 20 | 355 | 4.8 | 14.5 | 0.00 | 0.00 | 0.00 | 71 | 1017.6 |
| 20260507211607 | 21 | 5 | 6.4 | 16.1 | 0.00 | 0.00 | 0.00 | 71 | 1018.1 |
| 20260507211543 | 21 | 9 | 6.4 | 17.7 | 0.00 | 0.00 | 0.00 | 70 | 1015.1 |
| 20260507210048 | 21 | 23 | 8.0 | 17.7 | 0.00 | 0.00 | 0.00 | 70 | 1015.1 |
| 20260507210005 | 21 | 59 | 9.7 | 17.7 | 0.00 | 0.00 | 0.00 | 70 | 1018.2 |
| 20260507204553 | 21 | 26 | 9.7 | 25.7 | 0.00 | 0.00 | 0.00 | 70 | 1015.4 |
| 20260507204504 | 21 | 63 | 8.0 | 25.7 | 0.00 | 0.00 | 0.00 | 71 | 1018.4 |
| 20260507203044 | 21 | 34 | 11.3 | 22.5 | 0.00 | 0.00 | 0.00 | 71 | 1014.6 |
| 20260507203003 | 21 | 58 | 12.9 | 22.5 | 0.00 | 0.00 | 0.00 | 72 | 1017.5 |
| 20260507201544 | 21 | 16 | 8.0 | 27.4 | 0.00 | 0.00 | 0.00 | 73 | 1015.2 |
| 20260507201503 | 21 | 355 | 9.7 | 27.4 | 0.00 | 0.00 | 0.00 | 73 | 1018.1 |
| 20260507200057 | 20 | 5 | 4.8 | 19.3 | 0.00 | 0.00 | 0.00 | 77 | 1017.8 |
| 20260507200042 | 20 | 24 | 6.4 | 19.3 | 0.00 | 0.00 | 0.00 | 77 | 1014.9 |
| 20260507194555 | 19 | 36 | 11.3 | 22.5 | 0.00 | 0.00 | 0.00 | 76 | 1018.2 |
| 20260507194542 | 19 | 25 | 11.3 | 22.5 | 0.00 | 0.00 | 0.00 | 76 | 1015.3 |
| 20260507193107 | 19 | 67 | 6.4 | 20.9 | 0.00 | 0.00 | 0.00 | 77 | 1018.1 |
| 20260507193046 | 19 | 352 | 9.7 | 22.5 | 0.00 | 0.00 | 0.00 | 76 | 1015.2 |
| 20260507191553 | 19 | 339 | 6.4 | 20.9 | 0.00 | 0.00 | 0.00 | 77 | 1018.9 |
| 20260507191541 | 19 | 339 | 8.0 | 20.9 | 0.00 | 0.00 | 0.00 | 76 | 1016.0 |
| 20260507190100 | 18 | 5 | 8.0 | 22.5 | 0.00 | 0.00 | 0.00 | 78 | 1018.4 |
| 20260507190044 | 18 | 352 | 9.7 | 22.5 | 0.00 | 0.00 | 0.00 | 77 | 1015.5 |
| 20260507184549 | 18 | 49 | 11.3 | 25.7 | 0.00 | 0.00 | 0.00 | 78 | 1017.9 |
| 20260507184541 | 18 | 65 | 9.7 | 25.7 | 0.00 | 0.00 | 0.00 | 78 | 1015.1 |
| 20260507183050 | 18 | 65 | 8.0 | 20.9 | 0.00 | 0.00 | 0.00 | 78 | 1018.6 |
| 20260507183047 | 18 | 66 | 6.4 | 17.7 | 0.00 | 0.00 | 0.00 | 78 | 1015.7 |
| 20260507181548 | 17 | 34 | 6.4 | 14.5 | 0.00 | 0.00 | 0.00 | 79 | 1016.1 |
| 20260507180051 | 17 | 55 | 8.0 | 19.3 | 0.00 | 0.00 | 0.00 | 79 | 1019.5 |
| 20260507174546 | 17 | 94 | 8.0 | 20.9 | 0.00 | 0.00 | 0.00 | 78 | 1019.6 |
| 20260507174544 | 17 | 348 | 9.7 | 20.9 | 0.00 | 0.00 | 0.00 | 78 | 1016.8 |
| 20260507173052 | 18 | 94 | 11.3 | 20.9 | 0.00 | 0.00 | 0.00 | 78 | 1019.6 |
| 20260507173042 | 18 | 67 | 11.3 | 20.9 | 0.00 | 0.00 | 0.00 | 78 | 1016.9 |
| 20260507171551 | 18 | 62 | 8.0 | 20.9 | 0.00 | 0.00 | 0.00 | 78 | 1016.9 |
| 20260507171544 | 18 | 57 | 6.4 | 20.9 | 0.00 | 0.00 | 0.00 | 79 | 1019.6 |
| 20260507170049 | 17 | 61 | 9.7 | 25.7 | 0.00 | 0.00 | 0.00 | 80 | 1016.8 |
| 20260507170043 | 17 | 33 | 9.7 | 25.7 | 0.00 | 0.00 | 0.00 | 81 | 1019.4 |
| 20260507164552 | 17 | 18 | 11.3 | 25.7 | 0.00 | 0.00 | 0.00 | 81 | 1017.0 |
| 20260507164542 | 17 | 338 | 11.3 | 25.7 | 0.00 | 0.00 | 0.00 | 82 | 1019.6 |
| 20260507163045 | 16 | 37 | 8.0 | 22.5 | 0.00 | 0.00 | 0.00 | 82 | 1017.0 |
| 20260507163042 | 16 | 61 | 8.0 | 22.5 | 0.00 | 0.00 | 0.00 | 82 | 1019.6 |
| 20260507161543 | 16 | 9 | 11.3 | 25.7 | 0.00 | 0.00 | 0.00 | 82 | 1017.1 |
| 20260507160058 | 16 | 19 | 12.9 | 27.4 | 0.00 | 0.00 | 0.00 | 82 | 1017.0 |
| 20260507160039 | 16 | 53 | 14.5 | 30.6 | 0.00 | 0.00 | 0.00 | 83 | 1019.6 |
| 20260507154547 | 16 | 82 | 16.1 | 27.4 | 0.00 | 0.00 | 0.00 | 83 | 1016.6 |
| 20260507154541 | 16 | 59 | 17.7 | 27.4 | 0.00 | 0.00 | 0.00 | 84 | 1019.4 |
| 20260507153054 | 16 | 67 | 11.3 | 27.4 | 0.00 | 0.00 | 0.00 | 84 | 1016.6 |
| 20260507153045 | 16 | 47 | 11.3 | 27.4 | 0.00 | 0.00 | 0.00 | 84 | 1019.3 |
| 20260507151545 | 16 | 51 | 6.4 | 25.7 | 0.00 | 0.00 | 0.00 | 84 | 1016.8 |
| 20260507151532 | 16 | 46 | 6.4 | 25.7 | 0.00 | 0.00 | 0.00 | 85 | 1019.4 |
| 20260507150045 | 16 | 35 | 9.7 | 29.0 | 0.00 | 0.00 | 0.00 | 84 | 1016.4 |
| 20260507150029 | 16 | 24 | 11.3 | 29.0 | 0.00 | 0.00 | 0.00 | 85 | 1019.1 |
| 20260507144548 | 16 | 18 | 12.9 | 32.2 | 0.00 | 0.00 | 0.00 | 85 | 1016.1 |
| 20260507144526 | 16 | 9 | 11.3 | 32.2 | 0.00 | 0.00 | 0.00 | 85 | 1018.8 |
| 20260507143047 | 16 | 340 | 9.7 | 27.4 | 0.00 | 0.00 | 0.00 | 85 | 1015.8 |
| 20260507143025 | 16 | 15 | 12.9 | 27.4 | 0.00 | 0.00 | 0.00 | 86 | 1018.6 |
| 20260507141552 | 16 | 45 | 9.7 | 22.5 | 0.00 | 0.00 | 0.00 | 86 | 1015.8 |
| 20260507141522 | 16 | 15 | 9.7 | 22.5 | 0.00 | 0.00 | 0.00 | 86 | 1018.4 |
| 20260507140106 | 16 | 36 | 6.4 | 33.8 | 0.00 | 0.00 | 0.00 | 86 | 1016.4 |
| 20260507140021 | 16 | 5 | 8.0 | 22.5 | 0.00 | 0.00 | 0.00 | 86 | 1019.2 |
| 20260507134545 | 16 | 5 | 11.3 | 27.4 | 0.00 | 0.00 | 0.00 | 85 | 1015.9 |
| 20260507134521 | 16 | 19 | 14.5 | 27.4 | 0.00 | 0.00 | 0.00 | 86 | 1018.6 |
| 20260507133044 | 16 | 82 | 8.0 | 25.7 | 0.00 | 0.00 | 0.00 | 85 | 1015.8 |
| 20260507133018 | 16 | 40 | 6.4 | 25.7 | 0.00 | 0.00 | 0.00 | 85 | 1018.6 |
| 20260507131545 | 16 | 51 | 14.5 | 32.2 | 0.00 | 0.00 | 0.00 | 84 | 1016.2 |
| 20260507131514 | 16 | 333 | 12.9 | 29.0 | 0.00 | 0.00 | 0.00 | 84 | 1018.9 |
| 20260507130051 | 16 | 329 | 14.5 | 33.8 | 0.00 | 0.00 | 0.00 | 83 | 1015.8 |
| 20260507130011 | 16 | 27 | 14.5 | 33.8 | 0.00 | 0.00 | 0.00 | 84 | 1018.4 |
| 20260507124549 | 16 | 46 | 14.5 | 29.0 | 0.00 | 0.00 | 0.00 | 82 | 1015.6 |
| 20260507124510 | 16 | 54 | 14.5 | 30.6 | 0.00 | 0.00 | 0.00 | 83 | 1018.2 |
| 20260507123056 | 17 | 327 | 6.4 | 22.5 | 0.00 | 0.00 | 0.00 | 82 | 1015.8 |
| 20260507123006 | 17 | 32 | 4.8 | 22.5 | 0.00 | 0.00 | 0.00 | 82 | 1018.5 |
| 20260507121547 | 17 | 84 | 6.4 | 17.7 | 0.00 | 0.00 | 0.00 | 82 | 1015.6 |
| 20260507121504 | 17 | 62 | 6.4 | 17.7 | 0.00 | 0.00 | 0.00 | 82 | 1018.1 |
| 20260507120046 | 17 | 40 | 8.0 | 24.1 | 0.00 | 0.00 | 0.00 | 82 | 1015.3 |
| 20260507120001 | 17 | 46 | 8.0 | 24.1 | 0.00 | 0.00 | 0.00 | 82 | 1017.8 |
| 20260507114606 | 17 | 29 | 4.8 | 16.1 | 0.00 | 0.00 | 0.00 | 82 | 1017.6 |
| 20260507114550 | 17 | 346 | 6.4 | 16.1 | 0.00 | 0.00 | 0.00 | 82 | 1015.0 |
| 20260507113056 | 17 | 57 | 8.0 | 27.4 | 0.00 | 0.00 | 0.00 | 82 | 1017.3 |
| 20260507113047 | 17 | 27 | 6.4 | 27.4 | 0.00 | 0.00 | 0.00 | 81 | 1014.6 |